| time (UTC) | temp F | wind direction | speed MPH | gust MPH | rain 1hr in | rain 24hr in | rain mn in | humidity % | barometer mb |
| 20260504045016 | 49 | 175 | 5.0 | 6.0 | 0.00 | 0.00 | 0.00 | 65 | 1012.3 |
| 20260504044040 | 49 | 178 | 6.0 | 7.0 | 0.00 | 0.00 | 0.00 | 65 | 1012.3 |
| 20260504043105 | 49 | 180 | 5.0 | 7.0 | 0.00 | 0.00 | 0.00 | 65 | 1012.3 |
| 20260504042029 | 49 | 177 | 4.0 | 5.0 | 0.00 | 0.00 | 0.00 | 65 | 1012.4 |
| 20260504041015 | 49 | 172 | 4.0 | 5.0 | 0.00 | 0.00 | 0.00 | 64 | 1012.5 |
| 20260504040040 | 49 | 166 | 4.0 | 5.0 | 0.00 | 0.00 | 0.00 | 63 | 1012.6 |
| 20260504035043 | 48 | 185 | 4.0 | 4.0 | 0.00 | 0.00 | 0.00 | 65 | 1013.0 |
| 20260504034027 | 49 | 203 | 5.0 | 6.0 | 0.00 | 0.00 | 0.00 | 64 | 1013.1 |
| 20260504033026 | 49 | 229 | 4.0 | 6.0 | 0.00 | 0.00 | 0.00 | 65 | 1013.1 |
| 20260504032018 | 49 | 255 | 3.0 | 5.0 | 0.00 | 0.00 | 0.00 | 64 | 1013.0 |
| 20260504031022 | 49 | 184 | 4.0 | 6.0 | 0.00 | 0.00 | 0.00 | 63 | 1013.0 |
| 20260504030021 | 49 | 178 | 4.0 | 5.0 | 0.00 | 0.00 | 0.00 | 63 | 1012.9 |
| 20260504025019 | 50 | 194 | 4.0 | 5.0 | 0.00 | 0.00 | 0.00 | 63 | 1013.0 |
| 20260504024017 | 50 | 180 | 4.0 | 4.0 | 0.00 | 0.00 | 0.00 | 62 | 1013.0 |
| 20260504023016 | 50 | 183 | 3.0 | 3.0 | 0.00 | 0.00 | 0.00 | 62 | 1013.0 |
| 20260504022026 | 50 | 186 | 3.0 | 4.0 | 0.00 | 0.00 | 0.00 | 63 | 1013.1 |
| 20260504021031 | 51 | 194 | 3.0 | 4.0 | 0.00 | 0.00 | 0.00 | 61 | 1013.0 |
| 20260504020037 | 51 | 178 | 3.0 | 4.0 | 0.00 | 0.00 | 0.00 | 60 | 1012.9 |
| 20260504015021 | 52 | 203 | 3.0 | 4.0 | 0.00 | 0.00 | 0.00 | 58 | 1012.9 |
| 20260504014025 | 53 | 200 | 4.0 | 4.0 | 0.00 | 0.00 | 0.00 | 57 | 1012.8 |
| 20260504013029 | 53 | 203 | 4.0 | 5.0 | 0.00 | 0.00 | 0.00 | 56 | 1012.7 |
| 20260504012016 | 54 | 207 | 4.0 | 5.0 | 0.00 | 0.00 | 0.00 | 56 | 1012.6 |
| 20260504011100 | 54 | 206 | 5.0 | 6.0 | 0.00 | 0.00 | 0.00 | 55 | 1012.6 |
| 20260504010045 | 54 | 208 | 5.0 | 6.0 | 0.00 | 0.00 | 0.00 | 54 | 1012.6 |
| 20260504005029 | 55 | 214 | 5.0 | 6.0 | 0.00 | 0.00 | 0.00 | 53 | 1012.5 |
| 20260504004015 | 56 | 212 | 7.0 | 8.0 | 0.00 | 0.00 | 0.00 | 51 | 1012.5 |
| 20260504003020 | 56 | 209 | 8.0 | 11.0 | 0.00 | 0.00 | 0.00 | 51 | 1012.5 |
| 20260504002024 | 56 | 215 | 7.0 | 8.0 | 0.00 | 0.00 | 0.00 | 51 | 1012.6 |
| 20260504001028 | 57 | 213 | 7.0 | 11.0 | 0.00 | 0.00 | 0.00 | 51 | 1012.6 |
| 20260504000032 | 57 | 231 | 7.0 | 8.0 | 0.00 | 0.00 | 0.00 | 49 | 1012.6 |
| 20260503235019 | 57 | 217 | 7.0 | 9.0 | 0.00 | 0.00 | 0.00 | 49 | 1012.6 |
| 20260503234024 | 57 | 228 | 7.0 | 9.0 | 0.00 | 0.00 | 0.00 | 49 | 1012.6 |
| 20260503233027 | 58 | 228 | 11.0 | 13.0 | 0.00 | 0.00 | 0.00 | 48 | 1012.6 |
| 20260503232052 | 59 | 222 | 12.0 | 17.0 | 0.00 | 0.00 | 0.00 | 46 | 1012.7 |
| 20260503231018 | 59 | 236 | 9.0 | 11.0 | 0.00 | 0.00 | 0.00 | 45 | 1012.6 |
| 20260503230022 | 60 | 226 | 10.0 | 15.0 | 0.00 | 0.00 | 0.00 | 44 | 1012.6 |
| 20260503225026 | 60 | 223 | 9.0 | 11.0 | 0.00 | 0.00 | 0.00 | 44 | 1012.7 |
| 20260503224031 | 60 | 225 | 8.0 | 13.0 | 0.00 | 0.00 | 0.00 | 45 | 1012.8 |
| 20260503223016 | 59 | 233 | 13.0 | 17.0 | 0.00 | 0.00 | 0.00 | 45 | 1012.9 |
| 20260503222021 | 60 | 228 | 13.0 | 16.0 | 0.00 | 0.00 | 0.00 | 45 | 1012.9 |
| 20260503221025 | 59 | 234 | 13.0 | 17.0 | 0.00 | 0.00 | 0.00 | 45 | 1012.9 |
| 20260503220029 | 59 | 223 | 12.0 | 18.0 | 0.00 | 0.00 | 0.00 | 46 | 1012.9 |
| 20260503215016 | 59 | 234 | 9.0 | 12.0 | 0.00 | 0.00 | 0.00 | 44 | 1012.8 |
| 20260503214020 | 59 | 230 | 10.0 | 13.0 | 0.00 | 0.00 | 0.00 | 46 | 1012.7 |
| 20260503213024 | 59 | 230 | 8.0 | 10.0 | 0.00 | 0.00 | 0.00 | 46 | 1012.7 |
| 20260503212023 | 59 | 249 | 10.0 | 18.0 | 0.00 | 0.00 | 0.00 | 45 | 1012.7 |
| 20260503211015 | 60 | 224 | 13.0 | 16.0 | 0.00 | 0.00 | 0.00 | 45 | 1012.6 |
| 20260503210039 | 61 | 228 | 9.0 | 11.0 | 0.00 | 0.00 | 0.00 | 44 | 1012.7 |
| 20260503205018 | 61 | 244 | 8.0 | 11.0 | 0.00 | 0.00 | 0.00 | 45 | 1012.7 |
| 20260503204015 | 60 | 225 | 11.0 | 13.0 | 0.00 | 0.00 | 0.00 | 45 | 1012.8 |
| 20260503203032 | 60 | 215 | 11.0 | 19.0 | 0.00 | 0.00 | 0.00 | 46 | 1012.9 |
| 20260503202019 | 60 | 224 | 12.0 | 15.0 | 0.00 | 0.00 | 0.00 | 44 | 1013.0 |
| 20260503201023 | 61 | 226 | 11.0 | 13.0 | 0.00 | 0.00 | 0.00 | 45 | 1013.1 |
| 20260503200047 | 62 | 230 | 6.0 | 11.0 | 0.00 | 0.00 | 0.00 | 39 | 1013.2 |
| 20260503195051 | 63 | 229 | 5.0 | 9.0 | 0.00 | 0.00 | 0.00 | 41 | 1013.4 |
| 20260503194037 | 62 | 240 | 6.0 | 10.0 | 0.00 | 0.00 | 0.00 | 38 | 1013.6 |
| 20260503193022 | 62 | 255 | 6.0 | 9.0 | 0.00 | 0.00 | 0.00 | 39 | 1013.8 |
| 20260503192026 | 63 | 257 | 7.0 | 13.0 | 0.00 | 0.00 | 0.00 | 39 | 1013.9 |
| 20260503191051 | 64 | 253 | 5.0 | 9.0 | 0.00 | 0.00 | 0.00 | 38 | 1014.1 |
| 20260503190016 | 63 | 250 | 8.0 | 12.0 | 0.00 | 0.00 | 0.00 | 38 | 1014.3 |
| 20260503185021 | 61 | 229 | 12.0 | 18.0 | 0.00 | 0.00 | 0.00 | 39 | 1014.3 |
| 20260503184026 | 62 | 232 | 10.0 | 17.0 | 0.00 | 0.00 | 0.00 | 41 | 1014.3 |
| 20260503183030 | 60 | 257 | 8.0 | 14.0 | 0.00 | 0.00 | 0.00 | 38 | 1014.5 |
| 20260503182036 | 61 | 251 | 8.0 | 11.0 | 0.00 | 0.00 | 0.00 | 40 | 1014.6 |
| 20260503181020 | 62 | 242 | 8.0 | 13.0 | 0.00 | 0.00 | 0.00 | 39 | 1014.8 |
| 20260503180025 | 61 | 243 | 8.0 | 11.0 | 0.00 | 0.00 | 0.00 | 39 | 1014.9 |
| 20260503175029 | 60 | 236 | 11.0 | 19.0 | 0.00 | 0.00 | 0.00 | 41 | 1014.9 |
| 20260503174015 | 61 | 233 | 5.0 | 9.0 | 0.00 | 0.00 | 0.00 | 44 | 1014.9 |
| 20260503173020 | 60 | 240 | 9.0 | 13.0 | 0.00 | 0.00 | 0.00 | 41 | 1014.9 |
| 20260503172024 | 59 | 250 | 7.0 | 11.0 | 0.00 | 0.00 | 0.00 | 42 | 1015.1 |
| 20260503171028 | 59 | 268 | 8.0 | 12.0 | 0.00 | 0.00 | 0.00 | 42 | 1015.2 |
| 20260503131018 | 46 | 202 | 6.0 | 8.0 | 0.00 | 0.00 | 0.00 | 60 | 1017.0 |
| 20260503081021 | 34 | 181 | 3.0 | 4.0 | 0.00 | 0.01 | 0.00 | 89 | 1016.6 |
| 20260503072049 | 34 | 185 | 2.0 | 3.0 | 0.00 | 0.01 | 0.00 | 89 | 1016.7 |
| 20260503071049 | 34 | 171 | 2.0 | 3.0 | 0.00 | 0.01 | 0.00 | 89 | 1016.6 |